Location: Leeds
(37.2390°N, 113.3580°W)
Time: 17:03:12
(UTC-06:00)

SL-08 RB Rocket - Visible Passes

Search period start: 30 July 2015 00:00
Search period end: 09 August 2015 00:00
Orbit: 649 x 686 km, 98.1° (Epoch: 30 July)

Date Brightness Start Highest point End Pass type
(mag) Time Alt. Az. Time Alt. Az. Time Alt. Az.
30 Jul 6.2 00:29:15 13° W 00:29:15 13° W 00:30:52 10° WNW visible
30 Jul 5.9 21:45:59 10° ENE 21:46:52 11° ENE 21:48:02 10° NE visible
30 Jul 3.8 23:23:29 69° W 23:23:29 69° W 23:27:56 10° NNW visible
31 Jul 5.0 22:17:44 22° E 22:18:33 23° ENE 22:22:09 10° NNE visible
31 Jul 5.2 23:55:53 29° W 23:55:53 29° W 23:59:27 10° NW visible
01 Aug 3.9 22:50:08 49° E 22:50:22 50° ENE 22:54:45 10° N visible
02 Aug 6.3 00:28:17 13° W 00:28:17 13° W 00:29:51 10° WNW visible
02 Aug 5.9 21:45:04 10° ENE 21:45:45 10° ENE 21:46:41 10° NE visible
02 Aug 3.8 23:22:31 69° WNW 23:22:31 69° WNW 23:26:49 10° NNW visible
03 Aug 5.1 22:16:46 22° E 22:17:25 22° ENE 22:20:59 10° NNE visible
03 Aug 5.2 23:54:55 29° W 23:54:55 29° W 23:58:20 10° NW visible
04 Aug 4.0 22:49:10 48° ENE 22:49:13 48° ENE 22:53:36 10° N visible
05 Aug 6.3 00:27:20 13° W 00:27:20 13° W 00:28:50 10° WNW visible
05 Aug 5.9 21:44:14 10° ENE 21:44:36 10° ENE 21:45:16 10° NE visible
05 Aug 3.9 23:21:34 67° NW 23:21:34 67° NW 23:25:40 10° NNW visible
06 Aug 5.1 22:15:49 21° ENE 22:16:17 22° ENE 22:19:48 10° NNE visible
06 Aug 5.3 23:53:59 29° WNW 23:53:59 29° WNW 23:57:14 10° NW visible
07 Aug 4.1 22:48:13 47° ENE 22:48:13 47° ENE 22:52:27 10° N visible
08 Aug 6.3 00:26:23 13° WNW 00:26:23 13° WNW 00:27:48 10° WNW visible
08 Aug 4.0 23:20:37 63° NW 23:20:37 63° NW 23:24:32 10° NNW visible
